Location: Heisler
(52.6701°N, 112.2239°W)
Time: 14:17:57
(UTC+00:00)

Envisat - Pass Details

Date: 30 November 2021
Orbit: 764 x 766 km, 98.2° (Epoch: 26 January)

Event Time Altitude Azimuth Distance (km) Brightness Sun altitude
Rises 12:58:59 0° 13° (NNE) 3,248 6.3 -19.9°
Reaches altitude 10° 13:01:19 10° 12° (NNE) 2,318 5.5 -19.5°
Maximum altitude 13:06:24 74° 288° (WNW) 802 2.9 -18.8°
Drops below altitude 10° 13:11:28 10° 204° (SSW) 2,300 5.3 -18.0°
Sets 13:13:45 0° 203° (SSW) 3,222 6.1 -17.7°
